Content
SEND FEEDBACK

Daily
Averages
Monthly
Summary
Malaysia

PETALING JAYA, MALAYSIA


Home > Asia > Malaysia
Elevation: 98 feet     Latitude: 03 06N     Longitude: 0101 36

WEATHER
 
SELECT A DAY
Number of Records: 124,247;   Date Range: 7/19/98 - 11/24/14
 
SHARE

PRINT THIS DATA

[ ← Previous Day ]
WEATHER ALMANAC - JANUARY 31, 2013
[ Next Day → ]
[ °C ]   °F
Weather ElementAverageHighLow
Temperature84.7 °F93.2 °F (1:00 pm)75.2 °F (7:00 am)
Dewpoint73 °F77 °F (6:00 pm)69.8 °F (11:00 am)
Humidity69.7 %89 % (1:00 am)46 % (2:00 pm)
Barometer29.86 in29.92 in (10:00 am)29.77 in (5:00 pm)
Wind Speed2.5 mph6.9 mph (5:00 pm)
Weather ElementAverage
Visibility5.5 mi
Wind DirectionENE (62.6 °)

Weather ElementTotal
Precipitation---
Cooling Degree Days19.2 (Base 65)
Growing Degree Days34.2 (Base 50)
Averaged from 23 records on January 31, 2013
WEATHER CONDITIONS BREAKOUT
WIND DIRECTION BREAKOUT
WEATHER BY HOUR - JANUARY 31, 2013
[ °C ]   °F
Local TimeTemperatureDewpointHumidityBarometerVisibilityWind DirectionWind SpeedGust SpeedPrecipitationEventsConditions
1:00 AM78.8 °F75.2 °F89 %29.89 in4.3 miCalmMostly Cloudy
2:00 AM78.8 °F75.2 °F89 %29.89 in4.3 miCalmMostly Cloudy
3:00 AM77.0 °F73.4 °F89 %29.86 in4.3 miCalmMostly Cloudy
4:00 AM77.0 °F73.4 °F89 %29.86 in4.3 miCalmMostly Cloudy
5:00 AM77.0 °F71.6 °F83 %29.86 in4.3 miCalmMostly Cloudy
6:00 AM77.0 °F73.4 °F89 %29.86 in4.3 miCalmMostly Cloudy
7:00 AM75.2 °F71.6 °F89 %29.89 in5.0 miNNE (30°)1.2 mphMostly Cloudy
8:00 AM77.0 °F73.4 °F89 %29.89 in6.2 miNE (50°)1.2 mphMostly Cloudy
9:00 AM82.4 °F71.6 °F70 %29.89 in6.2 miEast (90°)3.5 mphMostly Cloudy
10:00 AM86.0 °F71.6 °F62 %29.92 in6.2 miNE (40°)4.6 mphMostly Cloudy
11:00 AM89.6 °F69.8 °F52 %29.89 in6.2 miNE (50°)4.6 mphMostly Cloudy
12:00 PM89.6 °F69.8 °F52 %29.89 in6.2 miENE (60°)3.5 mphMostly Cloudy
1:00 PM93.2 °F71.6 °F49 %29.89 in6.2 miNNE (30°)3.5 mphMostly Cloudy
2:00 PM93.2 °F69.8 °F46 %29.86 in6.2 miNNE (20°)2.3 mphMostly Cloudy
3:00 PM91.4 °F71.6 °F52 %29.83 in6.2 miNNE (20°)3.5 mphMostly Cloudy
4:00 PM91.4 °F73.4 °F55 %29.80 in6.2 miENE (70°)4.6 mphMostly Cloudy
5:00 PM91.4 °F75.2 °F59 %29.77 in6.2 miWSW (250°)6.9 mphMostly Cloudy
6:00 PM91.4 °F77.0 °F63 %29.77 in6.2 miNorth (10°)2.3 mphMostly Cloudy
7:00 PM89.6 °F75.2 °F62 %29.80 in6.2 miNW (310°)3.5 mphMostly Cloudy
8:00 PM87.8 °F71.6 °F58 %29.80 in5.6 miNNE (30°)3.5 mphMostly Cloudy
9:00 PM86.0 °F75.2 °F70 %29.83 in6.2 miNW (320°)3.5 mphMostly Cloudy
10:00 PM84.2 °F75.2 °F74 %29.86 in3.7 miNNE (30°)2.3 mphMostly Cloudy
11:00 PM82.4 °F73.4 °F74 %29.89 in5.6 miNNE (30°)3.5 mphMostly Cloudy
Hourly data recorded from WMSA, located miles away from Petaling Jaya, Malaysia







STORIES FROM OUR PARTNERS